Location: Sungai Apap
(2.6167°N, 113.3833°E)
Time: 14:34:31
(UTC+00:00)

Cosmos 2219 Rocket - Pass Details

Date: 25 May 2024
Orbit: 827 x 846 km, 71.0° (Epoch: 12 June)

Event Time Altitude Azimuth Distance (km) Brightness Sun altitude
Rises 20:08:38 0° 346° (NNW) 3,388 5.5 -30.1°
Reaches altitude 10° 20:11:04 10° 347° (NNW) 2,456 4.7 -29.5°
Maximum altitude 20:16:43 82° 75° (ENE) 856 2.1 -28.2°
Drops below altitude 10° 20:22:23 10° 162° (SSE) 2,465 4.5 -27.0°
Sets 20:24:50 0° 163° (SSE) 3,400 5.3 -26.4°
